Location: Krasnoyarskiy Pitomnik
(51.1333°N, 71.6167°E)
Time: 22:02:07
(UTC+00:00)

Altair - Pass Details

Date: 22 April 2024
Orbit: 1501 x 1682 km, 47.2° (Epoch: 19 May)

Event Time Altitude Azimuth Distance (km) Brightness Sun altitude
Rises 20:58:12 0° 287° (WNW) 4,808 10.0 -22.2°
Reaches altitude 10° 21:02:36 10° 270° (W) 3,784 9.3 -21.9°
Enters shadow 21:04:43 14° 258° (WSW) 3,425 8.9 -21.7°
Maximum altitude 21:08:23 18° 232° (SW) 3,142 - -21.4°
Drops below altitude 10° 21:14:03 10° 193° (SSW) 3,693 - -21.0°
Sets 21:18:19 0° 176° (S) 4,648 - -20.6°
